Flag for Switzerland Weather past 2 weeks in Winterthur, Switzerland

Now
64 °F

Partly sunny.


Feels Like: 64 °F
Forecast: 49 / 74 °F
Wind: 8 mph from Southwest

Location: Zurich-Kloten

Current Time: Aug 27, 2014 at 10:58:27 AM

Latest Report: Aug 27, 2014 at 10:20 AM


Visibility: N/A

Pressure: 30.01 "Hg

Humidity: 83%

Dew point: 59 °F

Location of WinterthurLocation

Historic Weather in Winterthur — Graph

°F

Winterthur temperature yesterday

Maximum temperature yesterday: 66 °F (at 6:20 PM)
Minimum temperature yesterday: 55 °F (at 12:20 AM)
Average temperature yesterday: 61 °F

Past Weeks' High & Low Weather Summary

 TemperatureHumidityPressure
High72 °F (Aug 12, 3:50 PM)100% (Aug 13, 4:20 AM)30.21 "Hg (Aug 13, 4:20 AM)
Low45 °F (Aug 17, 6:50 AM)43% (Aug 17, 3:20 PM)29.68 "Hg (Aug 13, 9:50 AM)
Average59 °F77%30.00 "Hg
* Reported Aug 12 9:20 AM — Aug 27 9:50 AM, Winterthur, Weather by CustomWeather, © 2014

Note: Actual official high and low records may vary slightly from our data, if they occured in-between our weather recording intervals... More about our weather records

Advertising

Winterthur weather history for previous 24 hours

 ConditionsComfort  
Time TempWeatherWind HumidityBarometerVisibility
9:50 AM
Aug 27
63 °FPartly sunny.8 mph83%30.01 "HgN/A
9:20 AM61 °FPartly sunny.5 mph88%29.98 "HgN/A
8:50 AM61 °FScattered clouds.7 mph88%29.98 "HgN/A
8:20 AM61 °FScattered showers. Scattered clouds.8 mph88%29.98 "HgN/A
7:50 AM59 °FScattered showers. Scattered clouds.2 mph94%29.95 "HgN/A
7:20 AM57 °FPartly cloudy.1 mph100%29.95 "HgN/A
6:50 AM57 °FScattered showers. Partly cloudy.5 mph100%29.95 "HgN/A
6:20 AM59 °FScattered showers. Partly cloudy.6 mph94%29.95 "HgN/A
5:50 AM59 °FRain showers. Partly cloudy.3 mph94%29.92 "Hg4 mi
5:20 AM59 °FScattered showers. Partly cloudy.3 mph94%29.92 "HgN/A
4:50 AM59 °FScattered showers. Partly cloudy.2 mph94%29.92 "HgN/A
4:20 AM59 °FScattered showers. Partly cloudy.3 mph94%29.92 "HgN/A
3:50 AM59 °FPartly cloudy.6 mph94%29.92 "HgN/A
3:20 AM59 °FScattered showers. Passing clouds.5 mph94%29.92 "HgN/A
1:50 AM59 °FScattered showers. Partly cloudy.6 mph94%29.89 "HgN/A
1:20 AM59 °FPartly cloudy.8 mph94%29.89 "HgN/A
12:50 AM59 °FRain showers. Partly cloudy.6 mph100%29.89 "Hg4 mi
12:20 AM61 °FRain showers. Partly cloudy.8 mph94%29.89 "Hg3 mi
11:50 PM
Aug 26
61 °FSprinkles. Passing clouds.3 mph88%29.89 "HgN/A
11:20 PM64 °FPassing clouds.5 mph78%29.86 "HgN/A
10:50 PM63 °FPartly cloudy.3 mph83%29.86 "HgN/A
10:20 PM63 °FPassing clouds.5 mph83%29.86 "HgN/A
9:50 PM63 °FPassing clouds.5 mph83%29.86 "HgN/A
9:20 PM64 °FPassing clouds.8 mph78%29.86 "HgN/A
8:50 PM64 °FBroken clouds.8 mph83%29.83 "HgN/A
8:20 PM66 °FPartly sunny.8 mph78%29.83 "HgN/A
7:50 PM66 °FPartly sunny.9 mph78%29.80 "HgN/A
7:20 PM66 °FPartly sunny.10 mph78%29.80 "HgN/A
6:50 PM66 °FBroken clouds.8 mph78%29.80 "HgN/A
6:20 PM66 °FBroken clouds.8 mph83%29.80 "HgN/A
5:50 PM64 °FPartly sunny.9 mph88%29.80 "HgN/A
5:20 PM64 °FBroken clouds.8 mph88%29.80 "HgN/A
4:50 PM64 °FPartly sunny.9 mph88%29.80 "HgN/A
4:20 PM64 °FBroken clouds.8 mph88%29.80 "HgN/A
3:50 PM64 °FBroken clouds.8 mph88%29.83 "HgN/A
3:20 PM64 °FBroken clouds.10 mph88%29.83 "HgN/A
2:50 PM64 °FBroken clouds.8 mph88%29.83 "HgN/A
2:20 PM63 °FRain. Broken clouds.6 mph94%29.83 "Hg5 mi
1:50 PM64 °FLight rain. Broken clouds.10 mph88%29.83 "HgN/A
1:20 PM63 °FRain. Broken clouds.12 mph88%29.83 "Hg4 mi
12:50 PM63 °FDrizzle. Broken clouds.8 mph88%29.83 "HgN/A
12:20 PM63 °FDrizzle. Broken clouds.3 mph88%29.83 "HgN/A
11:50 AM61 °FLight rain. More clouds than sun.8 mph94%29.83 "Hg5 mi
11:20 AM61 °FMore clouds than sun.7 mph88%29.83 "HgN/A
10:50 AM61 °FRain. More clouds than sun.7 mph88%29.83 "Hg4 mi
10:20 AM61 °FDrizzle. Broken clouds.9 mph88%29.83 "Hg5 mi
Weather by CustomWeather, © 2014

See weather overviewHow to use our weather pages